ALLAIRE, NJ current weather conditions

sailwx.info

Wind from 280 at 9 knots

Air temperature 4.0° C
Visibility: greater than 8.7 NM
Dewpoint -4.0° C

Last reported at 2020-Jan-28 23:10 UTC.
Time now 2020-Jan-29 00:04 UTC

Location: N 40°11' W 074°08'.
View on Google Maps.

See reports from other nearby stations

  
Tides and Currents Weather Stations Pressure Air Temp Water Temp Dewpoint Dewpoint Depression Visibility Wind Speed Wind Dir Waves Ship Positions
date/time (UTC)wind fromknots sea level pressurealtimeterstation pressurevisibilityair tempwater tempwave heightnotes
2020-Jan-28 23:10 280 9 8.7 4.0
2020-Jan-28 23:05 280 9 8.7 4.0
2020-Jan-28 23:00 290 10 8.7 4.0
2020-Jan-28 22:56 300 9 8.7 3.9
2020-Jan-28 22:55 290 10 8.7 4.0
2020-Jan-28 22:50 300 11 8.7 4.0
2020-Jan-28 22:45 300 11 8.7 4.0
2020-Jan-28 22:40 290 10 8.7 4.0
2020-Jan-28 22:35 300 12 8.7 4.0
2020-Jan-28 22:30 300 12 8.7 4.0
2020-Jan-28 22:25 300 14 8.7 4.0
2020-Jan-28 22:20 300 9 8.7 4.0
2020-Jan-28 22:15 300 10 8.7 4.0
2020-Jan-28 22:10 300 11 8.7 4.0
2020-Jan-28 22:05 290 9 8.7 4.0
2020-Jan-28 22:00 290 8 8.7 4.0
2020-Jan-28 21:56 300 7 8.7 3.9
2020-Jan-28 21:55 290 9 8.7 4.0
2020-Jan-28 21:50 290 8 8.7 4.0
2020-Jan-28 21:45 290 11 8.7 4.0
2020-Jan-28 21:40 290 11 8.7 4.0
2020-Jan-28 21:35 290 13 8.7 4.0
2020-Jan-28 21:30 290 11 8.7 4.0
2020-Jan-28 21:25 290 13 gusting 18 8.7 4.0
2020-Jan-28 21:20 290 13 8.7 4.0
2020-Jan-28 21:15 290 11 gusting 18 8.7 4.0
2020-Jan-28 21:10 290 10 8.7 4.0
2020-Jan-28 21:05 300 15 8.7 4.0
2020-Jan-28 21:00 300 13 8.7 4.0
2020-Jan-28 20:56 290 11 8.7 3.9
2020-Jan-28 20:55 290 11 8.7 4.0
2020-Jan-28 20:50 300 14 8.7 4.0
2020-Jan-28 20:45 290 14 gusting 20 8.7 4.0
2020-Jan-28 20:40 280 16 8.7 4.0
2020-Jan-28 20:35 300 15 8.7 4.0
2020-Jan-28 20:30 290 17 gusting 22 8.7 4.0
2020-Jan-28 20:25 290 17 8.7 4.0
2020-Jan-28 20:20 290 15 8.7 4.0
2020-Jan-28 20:15 290 16 8.7 5.0
2020-Jan-28 20:10 290 13 gusting 20 8.7 5.0
2020-Jan-28 20:05 290 12 8.7 5.0
2020-Jan-28 20:00 300 14 gusting 19 8.7 5.0
2020-Jan-28 19:56 300 17 gusting 22 8.7 5.0
2020-Jan-28 19:55 300 18 gusting 23 8.7 5.0
2020-Jan-28 19:50 290 13 8.7 5.0
2020-Jan-28 19:45 280 14 8.7 5.0
2020-Jan-28 19:40 290 17 8.7 6.0
2020-Jan-28 19:35 280 15 8.7 6.0
2020-Jan-28 19:30 290 15 8.7 6.0
2020-Jan-28 19:25 280 16 8.7 6.0
2020-Jan-28 19:20 310 16 8.7 6.0
2020-Jan-28 19:15 280 14 8.7 7.0
2020-Jan-28 19:10 300 13 8.7 6.0
2020-Jan-28 19:05 280 15 8.7 6.0
2020-Jan-28 19:00 290 15 gusting 20 8.7 7.0
2020-Jan-28 18:56 310 14 gusting 22 8.7 7.2
2020-Jan-28 18:55 310 16 8.7 7.0
2020-Jan-28 18:50 280 15 8.7 7.0
2020-Jan-28 18:45 280 14 gusting 19 8.7 7.0
2020-Jan-28 18:40 280 15 8.7 7.0
2020-Jan-28 18:35 310 15 8.7 6.0
2020-Jan-28 18:30 310 16 8.7 6.0
2020-Jan-28 18:25 300 14 8.7 7.0
2020-Jan-28 18:20 290 12 gusting 17 8.7 7.0
2020-Jan-28 18:15 280 14 8.7 7.0
2020-Jan-28 18:10 300 15 gusting 20 8.7 7.0
2020-Jan-28 18:05 310 17 8.7 7.0
2020-Jan-28 18:00 290 16 8.7 7.0
2020-Jan-28 17:56 300 13 gusting 22 8.7 6.7
2020-Jan-28 17:55 290 16 8.7 7.0
2020-Jan-28 17:50 310 14 8.7 7.0
2020-Jan-28 17:45 300 13 8.7 7.0
2020-Jan-28 17:40 280 12 8.7 6.0
2020-Jan-28 17:35 300 15 8.7 7.0
2020-Jan-28 17:30 300 11 8.7 7.0
2020-Jan-28 17:25 290 13 8.7 6.0
2020-Jan-28 17:20 290 16 8.7 7.0
2020-Jan-28 17:15 280 15 8.7 7.0
2020-Jan-28 17:10 300 15 8.7 7.0
2020-Jan-28 17:05 310 11 8.7 7.0
2020-Jan-28 17:00 310 13 8.7 7.0
2020-Jan-28 16:56 290 14 gusting 20 8.7 7.2
2020-Jan-28 16:55 300 13 8.7 7.0
2020-Jan-28 16:50 310 12 8.7 7.0
2020-Jan-28 16:45 300 14 8.7 7.0
2020-Jan-28 16:40 290 12 8.7 7.0
2020-Jan-28 16:35 300 14 8.7 7.0
2020-Jan-28 16:30 300 12 8.7 7.0
2020-Jan-28 16:25 300 12 8.7 6.0
2020-Jan-28 16:20 300 14 8.7 6.0
2020-Jan-28 16:15 300 15 8.7 6.0
2020-Jan-28 16:10 310 16 8.7 6.0
2020-Jan-28 16:05 320 14 8.7 6.0
2020-Jan-28 16:00 300 14 8.7 6.0
2020-Jan-28 15:56 300 14 gusting 20 8.7 6.1
2020-Jan-28 15:55 290 15 8.7 6.0
2020-Jan-28 15:50 300 15 8.7 6.0
2020-Jan-28 15:45 300 19 8.7 6.0
2020-Jan-28 15:40 310 16 8.7 6.0
2020-Jan-28 15:35 300 14 8.7 6.0
2020-Jan-28 15:30 320 17 gusting 22 8.7 6.0
2020-Jan-28 15:25 310 18 8.7 6.0
2020-Jan-28 15:20 320 16 8.7 5.0
2020-Jan-28 15:15 310 17 8.7 6.0
2020-Jan-28 15:10 310 14 gusting 20 8.7 6.0
2020-Jan-28 15:05 310 11 8.7 5.0
2020-Jan-28 15:00 300 16 8.7 4.0
2020-Jan-28 14:56 310 15 8.7 5.0
2020-Jan-28 14:55 310 15 gusting 20 8.7 5.0
2020-Jan-28 14:50 310 20 8.7 4.0
2020-Jan-28 14:45 310 16 gusting 22 8.7 4.0
2020-Jan-28 14:40 310 14 8.7 4.0
2020-Jan-28 14:35 300 14 8.7 4.0
2020-Jan-28 14:30 310 14 8.7 4.0
2020-Jan-28 14:25 310 10 8.7 4.0
2020-Jan-28 14:20 320 12 8.7 4.0
2020-Jan-28 14:15 310 11 8.7 4.0
2020-Jan-28 14:10 300 10 8.7 3.0
2020-Jan-28 14:05 300 11 8.7 3.0
2020-Jan-28 14:00 290 10 8.7 3.0
2020-Jan-28 13:56 290 8 8.7 3.3
2020-Jan-28 13:55 290 10 8.7 3.0
2020-Jan-28 13:50 290 10 8.7 3.0
2020-Jan-28 13:45 290 10 gusting 15 8.7 3.0
2020-Jan-28 13:40 280 13 8.7 3.0
2020-Jan-28 13:35 290 12 8.7 3.0
2020-Jan-28 13:30 280 11 8.7 2.0
2020-Jan-28 13:25 280 9 8.7 2.0
2020-Jan-28 13:20 280 8 8.7 2.0
2020-Jan-28 13:15 270 9 8.7 2.0
2020-Jan-28 13:10 280 8 8.7 2.0
2020-Jan-28 13:05 280 8 8.7 2.0
2020-Jan-28 13:00 280 8 8.7 2.0
2020-Jan-28 12:56 280 7 8.7 1.7
2020-Jan-28 12:55 270 8 8.7 2.0
2020-Jan-28 12:50 280 7 8.7 2.0
2020-Jan-28 12:45 280 7 8.7 2.0
2020-Jan-28 12:40 290 8 8.7 2.0
2020-Jan-28 12:35 280 8 8.7 2.0
2020-Jan-28 12:30 280 7 8.7 2.0
2020-Jan-28 12:25 280 8 8.7 2.0
2020-Jan-28 12:20 280 7 8.7 2.0
2020-Jan-28 12:15 290 9 8.7 2.0
2020-Jan-28 12:10 290 9 8.7 2.0
2020-Jan-28 12:05 280 11 8.7 2.0
2020-Jan-28 12:00 280 9 8.7 2.0
2020-Jan-28 11:56 290 8 8.7 2.2
2020-Jan-28 11:55 290 9 8.7 2.0
2020-Jan-28 11:50 290 11 8.7 2.0
2020-Jan-28 11:45 290 9 8.7 3.0
2020-Jan-28 11:40 280 13 8.7 3.0
2020-Jan-28 11:35 290 11 8.7 3.0
2020-Jan-28 11:30 290 12 8.7 3.0
2020-Jan-28 11:25 290 11 8.7 2.0
2020-Jan-28 11:20 290 10 8.7 3.0
2020-Jan-28 11:15 280 9 8.7 2.0
2020-Jan-28 11:10 280 10 8.7 2.0
2020-Jan-28 11:05 290 10 8.7 2.0
2020-Jan-28 11:00 280 9 8.7 2.0
2020-Jan-28 10:56 290 8 8.7 2.2
2020-Jan-28 10:55 290 9 8.7 2.0
2020-Jan-28 10:50 280 8 8.7 2.0
2020-Jan-28 10:45 280 8 8.7 2.0
2020-Jan-28 10:40 290 7 8.7 2.0
2020-Jan-28 10:35 290 7 8.7 2.0
2020-Jan-28 10:30 290 6 8.7 2.0
2020-Jan-28 10:25 280 6 8.7 2.0
2020-Jan-28 10:20 290 6 8.7 2.0
2020-Jan-28 10:15 290 7 8.7 2.0
2020-Jan-28 10:10 300 8 8.7 2.0
2020-Jan-28 10:05 300 10 8.7 2.0
2020-Jan-28 10:00 290 9 8.7 2.0
2020-Jan-28 09:56 290 9 8.7 1.7
2020-Jan-28 09:55 290 9 8.7 2.0
2020-Jan-28 09:50 290 8 8.7 2.0
2020-Jan-28 09:45 300 11 8.7 2.0
2020-Jan-28 09:40 290 8 8.7 2.0
2020-Jan-28 09:35 290 9 8.7 2.0
2020-Jan-28 09:30 290 9 8.7 2.0
2020-Jan-28 09:25 290 10 8.7 2.0
2020-Jan-28 09:20 290 12 8.7 2.0
2020-Jan-28 09:15 290 9 8.7 3.0
2020-Jan-28 09:10 290 10 8.7 3.0
2020-Jan-28 09:05 300 8 8.7 3.0
2020-Jan-28 09:00 290 9 8.7 3.0
2020-Jan-28 08:56 300 7 8.7 2.8
2020-Jan-28 08:55 290 9 8.7 3.0
2020-Jan-28 08:50 300 9 8.7 3.0
2020-Jan-28 08:45 300 9 8.7 3.0
2020-Jan-28 08:40 290 10 8.7 3.0
2020-Jan-28 08:35 300 12 8.7 3.0
2020-Jan-28 08:30 300 10 8.7 3.0
2020-Jan-28 08:25 290 10 8.7 3.0
2020-Jan-28 08:20 300 12 8.7 3.0
2020-Jan-28 08:15 290 10 8.7 3.0
2020-Jan-28 08:10 290 10 8.7 3.0
2020-Jan-28 08:05 300 11 8.7 3.0
2020-Jan-28 08:00 290 12 8.7 3.0
2020-Jan-28 07:56 290 12 8.7 3.3
2020-Jan-28 07:55 290 12 8.7 3.0
2020-Jan-28 07:50 290 12 8.7 3.0
2020-Jan-28 07:45 300 13 8.7 3.0
2020-Jan-28 07:40 300 13 8.7 3.0
2020-Jan-28 07:35 290 9 8.7 3.0
2020-Jan-28 07:30 290 12 8.7 3.0
2020-Jan-28 07:25 290 11 8.7 3.0
2020-Jan-28 07:20 290 11 8.7 4.0
2020-Jan-28 07:15 290 11 8.7 4.0
2020-Jan-28 07:10 290 9 8.7 4.0
2020-Jan-28 07:05 290 10 8.7 4.0
2020-Jan-28 07:00 290 8 8.7 4.0
2020-Jan-28 06:56 290 9 8.7 3.9
2020-Jan-28 06:55 290 9 8.7 4.0
2020-Jan-28 06:50 290 8 8.7 4.0
2020-Jan-28 06:45 280 7 8.7 4.0
2020-Jan-28 06:40 280 9 8.7 4.0
2020-Jan-28 06:35 290 7 8.7 4.0
2020-Jan-28 06:30 290 7 8.7 4.0
2020-Jan-28 06:25 290 8 8.7 4.0
2020-Jan-28 06:20 290 7 8.7 4.0
2020-Jan-28 06:15 290 7 8.7 4.0
2020-Jan-28 06:10 290 8 8.7 4.0
2020-Jan-28 06:05 290 8 8.7 4.0
2020-Jan-28 06:00 300 8 8.7 4.0
2020-Jan-28 05:56 290 6 8.7 3.9
2020-Jan-28 05:55 290 8 8.7 4.0
2020-Jan-28 05:50 290 7 8.7 4.0
2020-Jan-28 05:45 280 7 8.7 4.0
2020-Jan-28 05:40 280 7 8.7 4.0
2020-Jan-28 05:35 290 7 8.7 4.0
2020-Jan-28 05:30 280 6 8.7 4.0
2020-Jan-28 05:25 280 6 8.7 4.0
2020-Jan-28 05:20 290 7 8.7 4.0
2020-Jan-28 05:15 290 5 8.7 4.0
2020-Jan-28 05:10 280 6 8.7 4.0
2020-Jan-28 05:05 290 6 8.7 4.0
2020-Jan-28 05:00 290 6 8.7 4.0
2020-Jan-28 04:56 300 6 8.7 3.9
2020-Jan-28 04:55 290 7 8.7 4.0
2020-Jan-28 04:50 290 5 8.7 4.0
2020-Jan-28 04:45 290 6 8.7 4.0
2020-Jan-28 04:40 290 6 8.7 4.0
2020-Jan-28 04:35 290 8 8.7 4.0 Light rain.
2020-Jan-28 04:30 280 6 8.7 4.0 Light rain.
2020-Jan-28 04:25 290 6 8.7 4.0 Light rain.
2020-Jan-28 04:20 290 5 8.7 4.0 Light rain.
2020-Jan-28 04:15 290 6 8.7 4.0
2020-Jan-28 04:10 290 5 8.7 4.0
2020-Jan-28 04:05 280 5 8.7 4.0
2020-Jan-28 04:00 280 5 8.7 4.0
2020-Jan-28 03:56 270 5 8.7 3.9
2020-Jan-28 03:55 270 5 8.7 4.0
2020-Jan-28 03:50 270 5 8.7 4.0
2020-Jan-28 03:45 270 6 8.7 4.0
2020-Jan-28 03:40 270 5 8.7 4.0
2020-Jan-28 03:35 260 5 8.7 4.0
2020-Jan-28 03:30 270 5 8.7 4.0
2020-Jan-28 03:25 270 5 8.7 4.0
2020-Jan-28 03:20 270 5 8.7 4.0
2020-Jan-28 03:15 270 5 8.7 4.0
2020-Jan-28 03:10 280 5 8.7 4.0
2020-Jan-28 03:05 270 5 8.7 4.0
2020-Jan-28 03:00 270 5 8.7 4.0
2020-Jan-28 02:56 280 6 8.7 4.4
2020-Jan-28 02:55 280 6 8.7 4.0
2020-Jan-28 02:50 270 5 8.7 4.0
2020-Jan-28 02:45 270 5 8.7 4.0
2020-Jan-28 02:40 270 6 8.7 4.0
2020-Jan-28 02:35 270 5 8.7 4.0
2020-Jan-28 02:30 270 5 8.7 4.0
2020-Jan-28 02:25 270 5 8.7 4.0
2020-Jan-28 02:20 260 5 8.7 4.0
2020-Jan-28 02:15 260 5 8.7 4.0
2020-Jan-28 02:10 250 4 8.7 4.0
2020-Jan-28 02:05 260 4 8.7 4.0
2020-Jan-28 02:00 260 5 8.7 4.0
2020-Jan-28 01:56 260 6 8.7 4.4
2020-Jan-28 01:55 250 6 8.7 4.0
2020-Jan-28 01:50 250 5 8.7 4.0
2020-Jan-28 01:45 250 5 8.7 4.0
2020-Jan-28 01:40 260 5 8.7 4.0
2020-Jan-28 01:35 270 5 8.7 5.0
2020-Jan-28 01:30 270 5 8.7 5.0
2020-Jan-28 01:25 280 6 8.7 5.0
2020-Jan-28 01:20 270 6 8.7 5.0
2020-Jan-28 01:15 270 6 8.7 5.0
2020-Jan-28 01:10 270 6 8.7 5.0
2020-Jan-28 00:50 260 6 8.7 5.0
2020-Jan-28 00:45 270 6 8.7 5.0
2020-Jan-28 00:40 270 6 8.7 5.0
2020-Jan-28 00:35 270 6 8.7 5.0
2020-Jan-28 00:30 270 9 8.7 6.0
2020-Jan-28 00:25 270 8 8.7 5.0
2020-Jan-28 00:20 270 5 8.7 6.0
2020-Jan-28 00:15 270 8 8.7 6.0
2020-Jan-28 00:10 270 5 8.7 6.0
2020-Jan-28 00:05 270 8 8.7 6.0
2020-Jan-28 00:00 260 6 8.7 6.0
2020-Jan-27 23:56 260 4 8.7 5.6
2020-Jan-27 23:55 260 4 8.7 6.0
2020-Jan-27 23:50 260 5 8.7 6.0
2020-Jan-27 23:45 260 7 8.7 6.0
2020-Jan-27 23:40 260 7 8.7 6.0
2020-Jan-27 23:35 260 7 8.7 6.0
2020-Jan-27 23:30 260 7 8.7 6.0
2020-Jan-27 23:25 260 5 8.7 6.0
2020-Jan-27 23:20 260 7 8.7 6.0
2020-Jan-27 23:15 270 6 8.7 6.0
2020-Jan-27 23:10 270 7 8.7 6.0
2020-Jan-27 23:05 270 6 8.7 6.0
2020-Jan-27 23:00 260 6 8.7 6.0
2020-Jan-27 22:56 270 7 8.7 5.6
2020-Jan-27 22:55 270 8 8.7 6.0
2020-Jan-27 22:50 270 7 8.7 6.0
2020-Jan-27 22:45 270 6 8.7 6.0
2020-Jan-27 22:40 270 8 8.7 6.0
2020-Jan-27 22:35 270 8 8.7 6.0
2020-Jan-27 22:30 270 7 8.7 6.0
2020-Jan-27 22:25 270 7 8.7 6.0
2020-Jan-27 22:20 270 7 8.7 6.0
2020-Jan-27 22:15 280 7 8.7 6.0
2020-Jan-27 22:10 270 6 8.7 6.0
2020-Jan-27 22:05 260 6 8.7 6.0
2020-Jan-27 22:00 260 9 8.7 6.0
2020-Jan-27 21:56 270 7 8.7 5.6
2020-Jan-27 21:55 270 8 8.7 6.0
2020-Jan-27 21:50 280 7 8.7 6.0
2020-Jan-27 21:45 270 9 8.7 6.0
2020-Jan-27 21:40 280 9 8.7 6.0
2020-Jan-27 21:35 280 9 8.7 6.0
2020-Jan-27 21:30 270 11 8.7 6.0
2020-Jan-27 21:25 270 7 8.7 6.0
2020-Jan-27 21:20 280 7 8.7 6.0
2020-Jan-27 21:15 270 9 8.7 6.0
2020-Jan-27 21:10 280 10 8.7 6.0
2020-Jan-27 21:05 270 9 8.7 6.0
2020-Jan-27 21:00 270 9 8.7 6.0
2020-Jan-27 20:56 280 8 8.7 6.1
2020-Jan-27 20:55 270 9 8.7 6.0
2020-Jan-27 20:50 260 10 8.7 6.0
2020-Jan-27 20:45 270 8 8.7 6.0
2020-Jan-27 20:40 260 9 8.7 6.0
2020-Jan-27 20:35 280 9 8.7 6.0
2020-Jan-27 20:30 270 13 8.7 7.0
2020-Jan-27 20:25 280 9 8.7 7.0
2020-Jan-27 20:20 270 9 8.7 7.0
2020-Jan-27 20:15 260 11 8.7 7.0
2020-Jan-27 20:10 260 11 8.7 6.0
2020-Jan-27 20:05 260 12 8.7 7.0
2020-Jan-27 20:00 260 7 8.7 6.0
2020-Jan-27 19:56 270 12 8.7 6.1
2020-Jan-27 19:55 270 13 8.7 6.0
2020-Jan-27 19:50 270 12 8.7 6.0
2020-Jan-27 19:45 260 8 8.7 6.0
2020-Jan-27 19:40 280 9 8.7 6.0
2020-Jan-27 19:35 280 10 8.7 6.0
2020-Jan-27 19:30 270 9 8.7 6.0
2020-Jan-27 19:25 270 9 8.7 6.0
2020-Jan-27 19:20 270 14 8.7 6.0
2020-Jan-27 19:15 280 10 8.7 6.0
2020-Jan-27 19:10 270 12 gusting 17 8.7 6.0
2020-Jan-27 19:05 250 9 8.7 6.0
2020-Jan-27 19:00 250 11 8.7 6.0
2020-Jan-27 18:56 270 11 gusting 19 8.7 6.1
2020-Jan-27 18:55 270 11 8.7 6.0
2020-Jan-27 18:50 250 11 gusting 16 8.7 6.0
2020-Jan-27 18:45 260 11 8.7 6.0
2020-Jan-27 18:40 260 9 8.7 6.0
2020-Jan-27 18:35 260 11 8.7 6.0
2020-Jan-27 18:30 270 12 8.7 6.0
2020-Jan-27 18:25 260 10 8.7 6.0
2020-Jan-27 18:20 260 9 8.7 6.0
2020-Jan-27 18:15 260 10 8.7 6.0
2020-Jan-27 18:10 250 10 8.7 6.0
2020-Jan-27 18:05 260 10 8.7 6.0
2020-Jan-27 18:00 260 8 8.7 6.0
2020-Jan-27 17:56 270 6 8.7 5.6
2020-Jan-27 17:55 270 7 8.7 6.0
2020-Jan-27 17:50 260 8 8.7 6.0
2020-Jan-27 17:45 260 8 8.7 6.0
2020-Jan-27 17:40 260 11 8.7 6.0
2020-Jan-27 17:35 260 10 8.7 6.0
2020-Jan-27 17:30 260 13 8.7 6.0
2020-Jan-27 17:25 270 13 8.7 6.0
2020-Jan-27 17:20 270 13 8.7 6.0
2020-Jan-27 17:15 280 10 8.7 6.0
2020-Jan-27 17:10 260 10 8.7 6.0
2020-Jan-27 17:05 260 11 8.7 6.0
2020-Jan-27 17:00 250 10 8.7 6.0
2020-Jan-27 16:56 250 9 gusting 14 8.7 6.1
2020-Jan-27 16:55 250 9 gusting 15 8.7 6.0
2020-Jan-27 16:50 250 8 8.7 6.0
2020-Jan-27 16:45 250 7 8.7 6.0
2020-Jan-27 16:40 270 12 8.7 6.0
2020-Jan-27 16:35 250 10 8.7 6.0
2020-Jan-27 16:30 260 11 8.7 6.0
2020-Jan-27 16:25 250 8 8.7 6.0
2020-Jan-27 16:20 250 11 8.7 6.0
2020-Jan-27 16:15 240 12 8.7 6.0
2020-Jan-27 16:10 250 11 8.7 6.0
2020-Jan-27 16:05 270 8 8.7 6.0
2020-Jan-27 16:00 260 10 gusting 15 8.7 6.0
2020-Jan-27 15:56 250 11 gusting 18 8.7 5.6
2020-Jan-27 15:55 240 10 gusting 15 8.7 6.0
2020-Jan-27 15:50 250 9 8.7 6.0
2020-Jan-27 15:45 270 11 8.7 6.0
2020-Jan-27 15:40 260 12 8.7 5.0
2020-Jan-27 15:35 250 14 8.7 6.0
2020-Jan-27 15:30 260 11 8.7 5.0
2020-Jan-27 15:25 250 10 8.7 6.0
2020-Jan-27 15:20 250 12 8.7 6.0
2020-Jan-27 15:15 260 10 8.7 6.0
2020-Jan-27 15:10 250 8 8.7 6.0
2020-Jan-27 15:05 250 12 8.7 5.0
2020-Jan-27 15:00 240 9 gusting 14 8.7 5.0
2020-Jan-27 14:56 240 12 8.7 5.0
2020-Jan-27 14:55 240 11 8.7 5.0
2020-Jan-27 14:50 240 8 8.7 5.0
2020-Jan-27 14:45 230 10 gusting 15 8.7 5.0
2020-Jan-27 14:40 240 7 8.7 5.0
2020-Jan-27 14:35 230 9 8.7 5.0
2020-Jan-27 14:30 240 10 8.7 4.0
2020-Jan-27 14:25 230 10 8.7 4.0
2020-Jan-27 14:20 230 9 8.7 4.0
2020-Jan-27 14:15 230 10 8.7 4.0
2020-Jan-27 14:10 240 8 8.7 4.0
2020-Jan-27 14:05 230 8 8.7 3.0
2020-Jan-27 14:00 230 7 8.7 3.0
2020-Jan-27 13:56 230 9 8.7 3.3
2020-Jan-27 13:55 230 8 8.7 3.0
2020-Jan-27 13:50 230 7 8.7 3.0
2020-Jan-27 13:45 220 10 8.7 3.0
2020-Jan-27 13:40 230 8 8.7 3.0
2020-Jan-27 13:35 240 8 8.7 3.0
2020-Jan-27 13:30 230 8 8.7 3.0
2020-Jan-27 13:25 230 9 8.7 3.0
2020-Jan-27 13:20 230 8 8.7 3.0
2020-Jan-27 13:15 230 8 8.7 2.0
2020-Jan-27 13:10 230 8 8.7 2.0
2020-Jan-27 13:05 230 8 8.7 2.0
2020-Jan-27 13:00 220 8 8.7 2.0
2020-Jan-27 12:56 230 8 8.7 2.2
2020-Jan-27 12:55 230 10 8.7 2.0
2020-Jan-27 12:50 230 8 8.7 2.0
2020-Jan-27 12:45 230 9 8.7 2.0
2020-Jan-27 12:40 230 9 8.7 2.0
2020-Jan-27 12:35 230 8 8.7 2.0
2020-Jan-27 12:30 230 8 8.7 2.0
2020-Jan-27 12:25 220 8 8.7 2.0
2020-Jan-27 12:20 220 7 8.7 2.0
2020-Jan-27 12:15 230 7 8.7 2.0
2020-Jan-27 12:10 230 7 8.7 2.0
2020-Jan-27 12:05 220 7 8.7 2.0
2020-Jan-27 12:00 220 7 8.7 2.0
2020-Jan-27 11:56 220 6 8.7 1.7
2020-Jan-27 11:55 220 7 8.7 2.0
2020-Jan-27 11:50 220 7 8.7 2.0
2020-Jan-27 11:45 220 6 8.7 2.0
2020-Jan-27 11:40 220 7 8.7 2.0
2020-Jan-27 11:35 220 6 8.7 2.0
2020-Jan-27 11:30 230 7 8.7 2.0
2020-Jan-27 11:25 230 7 8.7 2.0
2020-Jan-27 11:20 230 7 8.7 2.0
2020-Jan-27 11:15 230 6 8.7 2.0
2020-Jan-27 11:10 220 6 8.7 2.0
2020-Jan-27 11:05 220 7 8.7 2.0
2020-Jan-27 11:00 220 7 8.7 2.0
2020-Jan-27 10:56 220 6 8.7 1.7
2020-Jan-27 10:55 220 6 8.7 2.0
2020-Jan-27 10:50 220 6 8.7 2.0
2020-Jan-27 10:45 220 6 8.7 2.0
2020-Jan-27 10:40 230 6 8.7 2.0
2020-Jan-27 10:35 230 7 8.7 2.0
2020-Jan-27 10:30 230 6 8.7 1.0
2020-Jan-27 10:25 230 6 8.7 1.0
2020-Jan-27 10:20 230 7 8.7 1.0
2020-Jan-27 10:15 230 8 8.7 1.0
2020-Jan-27 10:10 230 6 8.7 1.0
2020-Jan-27 10:05 230 8 8.7 1.0
2020-Jan-27 10:00 220 7 8.7 1.0
2020-Jan-27 09:56 230 6 8.7 1.1
2020-Jan-27 09:55 230 7 8.7 1.0
2020-Jan-27 09:50 230 7 8.7 1.0
2020-Jan-27 09:45 230 7 8.7 1.0
2020-Jan-27 09:40 230 6 8.7 1.0
2020-Jan-27 09:35 230 6 8.7 1.0
2020-Jan-27 09:30 220 7 8.7 1.0
2020-Jan-27 09:25 220 6 8.7 1.0
2020-Jan-27 09:20 230 6 8.7 1.0
2020-Jan-27 09:15 220 6 8.7 1.0
2020-Jan-27 09:10 220 7 8.7 1.0
2020-Jan-27 09:05 220 6 8.7 1.0
2020-Jan-27 09:00 220 6 8.7 1.0
2020-Jan-27 08:56 210 6 8.7 0.6
2020-Jan-27 08:55 210 6 8.7 1.0
2020-Jan-27 08:50 210 6 8.7 1.0
2020-Jan-27 08:45 210 6 8.7 1.0
2020-Jan-27 08:40 210 6 8.7 1.0
2020-Jan-27 08:35 210 6 8.7 1.0
2020-Jan-27 08:30 210 6 8.7 1.0
2020-Jan-27 08:25 210 6 8.7 1.0
2020-Jan-27 08:20 210 6 8.7 1.0
2020-Jan-27 08:15 220 6 8.7 1.0
2020-Jan-27 08:10 220 6 8.7 1.0
2020-Jan-27 08:05 220 6 8.7 1.0
2020-Jan-27 08:00 220 6 8.7 1.0
2020-Jan-27 07:56 230 6 8.7 0.6
2020-Jan-27 07:55 220 6 8.7 1.0
2020-Jan-27 07:50 220 6 8.7 1.0
2020-Jan-27 07:45 220 6 8.7 1.0
2020-Jan-27 07:40 220 6 8.7 1.0
2020-Jan-27 07:35 230 6 8.7-0.0
2020-Jan-27 07:30 230 5 8.7-0.0
2020-Jan-27 07:25 230 4 8.7 1.0
2020-Jan-27 07:20 240 5 8.7 1.0
2020-Jan-27 07:15 230 6 8.7 1.0
2020-Jan-27 07:10 220 5 8.7 1.0
2020-Jan-27 07:05 220 6 8.7 1.0
2020-Jan-27 07:00 230 6 8.7 1.0
2020-Jan-27 06:56 230 6 8.7 0.6
2020-Jan-27 06:55 230 6 8.7 1.0
2020-Jan-27 06:50 230 6 8.7 1.0
2020-Jan-27 06:45 230 6 8.7 1.0
2020-Jan-27 06:40 240 5 8.7 1.0
2020-Jan-27 06:35 240 6 8.7-0.0
2020-Jan-27 06:30 240 6 8.7-0.0
2020-Jan-27 06:25 230 6 8.7-0.0
2020-Jan-27 06:20 240 5 8.7-0.0
2020-Jan-27 06:15 240 5 8.7 1.0
2020-Jan-27 06:10 230 6 8.7 1.0
2020-Jan-27 06:05 230 5 8.7 1.0
2020-Jan-27 06:00 230 4 8.7 1.0
2020-Jan-27 05:56 240 4 8.7 0.6
2020-Jan-27 05:55 240 4 8.7 1.0
2020-Jan-27 05:50 250 3 8.7 1.0
2020-Jan-27 05:45 250 4 8.7 1.0
2020-Jan-27 05:40 250 4 8.7 1.0
2020-Jan-27 05:35 260 5 8.7 1.0
2020-Jan-27 05:30 260 5 8.7 1.0
2020-Jan-27 05:25 260 5 8.7 1.0
2020-Jan-27 05:20 260 5 8.7 1.0
2020-Jan-27 05:15 250 6 8.7 1.0
2020-Jan-27 05:10 240 4 8.7 1.0
2020-Jan-27 05:05 240 3 8.7 1.0
2020-Jan-27 05:00 240 4 8.7 1.0
2020-Jan-27 04:56 240 4 8.7 1.1
2020-Jan-27 04:55 240 4 8.7 1.0
2020-Jan-27 04:50 240 4 8.7 1.0
2020-Jan-27 04:45 270 5 8.7 1.0
2020-Jan-27 04:40 260 4 8.7 2.0
2020-Jan-27 04:35 250 4 8.7 2.0
2020-Jan-27 04:30 240 4 8.7 2.0
2020-Jan-27 04:25 240 3 8.7 2.0
2020-Jan-27 04:20 240 3 8.7 2.0
2020-Jan-27 04:15 250 4 8.7 2.0
2020-Jan-27 04:10 240 3 8.7 2.0
2020-Jan-27 04:05 240 3 8.7 2.0
2020-Jan-27 04:00 260 5 8.7 2.0
2020-Jan-27 03:56 260 5 8.7 1.7
2020-Jan-27 03:55 260 5 8.7 2.0
2020-Jan-27 03:50 250 4 8.7 2.0
2020-Jan-27 03:45 250 4 8.7 2.0
2020-Jan-27 03:40 240 3 8.7 2.0
2020-Jan-27 03:35 250 3 8.7 2.0
2020-Jan-27 03:30 240 4 8.7 3.0
2020-Jan-27 03:25 220 5 8.7 3.0
2020-Jan-27 03:20 230 4 8.7 3.0
2020-Jan-27 03:15 240 5 8.7 3.0
2020-Jan-27 03:10 240 5 8.7 3.0
2020-Jan-27 03:05 240 5 8.7 3.0
2020-Jan-27 03:00 250 4 8.7 3.0
2020-Jan-27 02:56 260 4 8.7 2.8
2020-Jan-27 02:55 260 4 8.7 3.0
2020-Jan-27 02:50 270 6 8.7 3.0
2020-Jan-27 02:45 260 6 8.7 3.0
2020-Jan-27 02:40 260 7 8.7 3.0
2020-Jan-27 02:35 270 8 8.7 3.0
2020-Jan-27 02:30 270 7 8.7 3.0
2020-Jan-27 02:25 260 7 8.7 3.0
2020-Jan-27 02:20 270 8 8.7 4.0
2020-Jan-27 02:15 270 8 8.7 4.0
2020-Jan-27 02:10 270 7 8.7 4.0
2020-Jan-27 02:05 270 9 8.7 4.0
2020-Jan-27 02:00 270 7 8.7 4.0
2020-Jan-27 01:56 270 6 8.7 3.9
2020-Jan-27 01:55 270 8 8.7 4.0
2020-Jan-27 01:50 270 7 8.7 4.0
2020-Jan-27 01:45 270 9 8.7 4.0
2020-Jan-27 01:40 280 9 8.7 4.0
2020-Jan-27 01:35 270 6 8.7 4.0
2020-Jan-27 01:30 270 8 8.7 4.0
2020-Jan-27 01:25 270 7 8.7 4.0
2020-Jan-27 01:20 280 8 8.7 4.0
2020-Jan-27 01:15 280 8 8.7 5.0
2020-Jan-27 01:10 270 8 8.7 5.0
2020-Jan-27 01:05 270 8 8.7 5.0
2020-Jan-27 01:00 280 8 8.7 5.0
2020-Jan-27 00:56 270 7 8.7 5.0
2020-Jan-27 00:55 270 8 8.7 5.0
2020-Jan-27 00:50 270 6 8.7 6.0
2020-Jan-27 00:45 260 5 8.7 6.0
2020-Jan-27 00:40 270 6 8.7 6.0
2020-Jan-27 00:35 260 5 8.7 6.0
2020-Jan-27 00:30 240 4 8.7 6.0
2020-Jan-27 00:25 250 5 8.7 6.0
2020-Jan-27 00:20 260 6 8.7 6.0
2020-Jan-27 00:15 260 4 8.7 6.0
2020-Jan-27 00:10 260 4 8.7 6.0
2020-Jan-27 00:05 250 5 8.7 6.0
2020-Jan-27 00:00 250 5 8.7 6.0